Wind_Speed
8 8 7 7 7 7 6 6 5 5 6 6 5 5 5 5 5 5 4 4 4 3 2 2 1 1 1 1 1 2 2 3 3 3 4 5 5 6 6 6 6 6 6
7 7 7 7 6 6 6 6 6 6 6 6 6 6 6 5 5 5 4 4 4 3 3 2 2 2 2 2 2 2 2 2 3 3 4 5 6 6 6 6 6 6 6
6 7 6 6 6 6 6 6 6 6 6 6 6 6 6 6 6 5 5 4 4 4 4 4 3 3 2 2 2 2 2 3 4 4 5 6 7 6 6 6 7 6 6
7 7 6 6 6 6 6 6 7 7 7 7 7 7 6 6 6 6 5 5 5 5 5 5 4 4 3 3 3 3 2 3 4 4 6 6 6 7 6 7 7 6 6
6 7 6 6 6 6 6 6 7 7 7 7 7 7 7 6 6 5 5 6 5 5 5 5 5 5 4 4 4 3 3 4 4 5 6 5 6 6 7 7 8 7 5
6 6 6 6 6 6 7 7 7 7 7 8 8 8 7 6 6 6 6 6 6 6 6 6 5 6 6 5 4 4 4 5 4 5 5 5 5 6 7 7 8 7 6
6 6 7 6 6 7 7 7 7 8 8 8 8 8 7 7 7 7 7 7 7 7 6 6 6 6 6 6 5 5 6 5 5 5 5 5 5 5 7 7 7 7 7
6 7 7 7 7 7 7 8 8 8 8 9 9 8 8 8 8 8 8 7 8 7 7 6 6 6 6 6 7 7 6 6 5 7 7 6 6 6 7 8 7 7 6
7 7 7 7 7 7 7 8 8 8 8 9 9 8 8 8 8 8 8 8 8 8 7 7 7 6 6 6 6 6 6 5 5 6 6 6 6 6 6 6 6 8 7
7 8 7 7 7 8 8 8 8 9 9 10 9 9 8 8 8 8 8 8 8 8 8 8 7 7 6 6 6 6 6 6 6 6 6 6 6 7 7 7 7 8 8
7 8 8 7 7 8 8 9 8 9 10 10 9 9 8 8 9 9 9 9 9 8 8 8 8 8 7 7 7 7 7 7 7 7 6 6 7 8 7 7 7 7 8
7 8 8 8 8 8 9 9 9 9 10 10 9 9 8 8 9 9 9 9 9 9 9 8 8 8 8 8 8 8 8 7 7 8 7 7 8 8 8 7 7 7 7
8 8 8 9 9 9 9 9 10 10 10 10 10 9 9 9 9 10 10 10 9 9 9 9 9 8 8 8 8 8 8 8 8 8 8 8 9 9 9 9 8 7 8
9 9 9 10 10 10 10 10 10 10 10 11 11 10 9 10 10 10 11 11 10 10 9 9 10 10 8 8 9 9 9 9 8 9 10 9 10 10 10 9 9 9 9
9 9 11 11 12 10 9 10 10 10 11 11 11 10 9 10 10 10 11 11 11 11 10 10 10 10 10 9 9 10 10 10 10 10 11 11 11 10 11 11 10 9 10
10 10 11 11 11 10 9 10 10 10 11 11 11 11 10 10 10 11 11 11 11 11 11 11 10 11 11 11 11 11 11 11 11 11 11 11 11 11 11 11 11 10 10
11 11 11 11 11 10 10 10 10 10 11 11 12 12 11 11 11 12 12 12 12 11 12 11 11 11 12 12 12 12 12 12 12 12 11 12 11 11 11 11 11 11 11
11 11 11 11 10 10 11 11 10 11 11 11 13 13 12 12 13 13 13 13 12 12 12 13 13 12 13 12 12 12 12 12 12 13 13 12 12 12 11 12 12 12 12
11 11 11 12 11 11 11 11 11 11 11 12 13 14 13 13 13 13 14 13 12 13 13 13 13 13 13 13 12 12 12 12 13 13 14 13 13 13 13 13 13 13 14
12 12 12 11 11 12 12 11 11 11 12 12 13 14 14 14 14 14 14 13 13 13 13 13 13 13 14 14 13 13 13 13 13 13 13 13 14 13 13 13 13 13 14
12 13 12 11 12 13 13 13 13 13 13 13 13 14 14 14 14 15 15 14 14 13 14 14 14 14 15 15 15 15 14 14 14 14 13 14 14 14 14 13 14 13 13
14 14 14 14 13 13 13 14 13 14 14 13 13 13 14 14 14 14 14 14 14 14 14 14 15 15 15 15 15 15 15 15 15 14 14 15 15 14 14 15 15 15 15
15 15 15 15 15 14 14 14 14 15 15 14 14 14 15 15 16 15 15 15 15 15 15 15 15 15 16 16 16 16 15 15 15 15 15 16 15 15 15 15 15 15 15
15 15 15 15 16 15 14 14 14 15 15 14 14 15 16 16 17 17 17 16 17 16 16 15 16 16 16 17 17 17 17 16 16 15 16 16 16 16 16 16 16 15 16
16 15 16 16 16 16 15 15 15 15 16 16 15 16 16 16 17 18 17 16 16 17 17 17 17 17 17 17 17 17 17 17 17 16 15 16 16 16 16 17 17 17 17
18 17 16 16 16 16 16 15 15 16 16 16 16 16 16 16 16 17 17 16 16 17 17 18 17 17 17 17 17 17 17 17 17 17 16 16 16 16 17 17 17 17 18
Wind_Direction
21 26 24 21 19 14 8 3 354 346 340 335 332 330 326 323 321 315 304 309 313 316 317 307 282 255 234 221 203 211 212 212 215 214 211 210 205 199 195 198 194 190 190
18 19 18 15 11 10 5 359 351 341 334 331 327 322 317 316 315 310 306 306 308 307 309 301 287 261 239 228 211 214 214 215 218 216 213 213 214 209 201 194 197 202 194
16 11 9 7 1 360 359 353 347 342 336 331 326 321 317 314 312 306 303 308 309 308 304 297 284 271 252 239 231 227 226 229 229 229 220 218 213 202 197 199 204 201 197
8 8 4 1 355 353 353 349 344 340 334 329 326 321 317 314 309 302 296 302 306 304 300 295 284 272 265 255 250 239 235 243 243 235 225 213 209 205 196 205 205 201 202
2 3 358 353 354 352 349 344 338 336 332 327 322 318 313 313 310 303 299 300 301 300 297 293 284 277 276 270 261 251 251 250 248 234 223 214 209 207 210 212 212 212 208
354 356 350 349 348 347 347 343 338 335 331 327 322 316 311 311 308 304 303 302 299 298 297 293 286 279 277 273 264 262 265 256 244 225 220 221 218 211 208 210 213 218 213
345 345 343 344 342 339 339 338 338 336 331 326 323 316 309 307 308 302 300 301 297 295 294 294 291 286 278 271 268 263 256 249 233 230 228 231 233 222 216 216 215 216 212
339 335 335 338 337 334 331 332 334 336 336 330 324 317 308 304 305 302 298 295 293 290 289 291 291 287 283 273 264 253 241 230 231 221 220 224 233 233 221 216 220 214 218
332 330 327 329 332 332 330 331 333 333 333 330 324 316 308 300 300 302 301 297 290 285 286 286 287 285 282 273 260 249 250 253 256 243 235 239 238 229 220 223 224 219 220
323 322 321 320 325 328 328 328 329 330 331 327 321 314 306 301 297 299 297 296 290 287 285 282 279 281 280 268 269 266 265 262 249 250 245 239 237 237 238 235 229 225 223
319 322 320 318 322 323 325 325 325 326 328 327 322 312 301 295 292 296 295 293 291 287 283 279 275 275 272 264 263 263 264 258 251 247 249 241 239 242 247 242 232 230 228
322 326 323 321 321 322 322 323 322 322 324 324 321 314 302 295 294 296 297 293 287 283 277 273 271 266 265 264 263 260 260 265 256 248 250 243 240 242 246 247 238 238 236
317 318 320 320 318 316 317 319 321 323 322 320 318 312 304 300 297 296 293 288 283 278 272 268 268 263 260 261 260 261 265 265 260 249 248 247 242 243 247 246 242 246 243
312 314 315 315 314 312 313 314 318 322 322 321 319 314 307 302 300 297 292 287 283 278 276 270 264 264 259 266 266 267 267 264 261 256 250 250 247 247 249 250 247 249 249
306 307 308 308 313 315 314 315 319 323 321 320 321 316 315 307 300 295 292 288 285 280 277 273 267 262 261 262 264 265 264 265 264 260 257 254 252 252 255 255 258 253 247
300 305 302 302 308 313 312 314 315 318 318 317 318 314 310 305 299 293 293 289 283 280 278 273 271 268 264 260 259 264 265 265 266 262 257 260 259 255 256 255 251 251 250
295 300 300 301 303 305 305 307 307 309 313 313 313 311 310 306 298 295 293 290 286 278 274 270 268 269 267 261 260 259 258 262 264 264 263 264 262 255 252 251 249 250 250
295 297 298 298 301 300 301 299 301 304 307 310 310 308 309 306 300 297 295 289 283 279 275 270 267 270 270 266 264 260 258 261 265 264 264 262 261 256 251 250 248 249 250
295 294 295 296 296 299 298 293 294 299 303 307 309 309 306 303 300 296 296 289 280 277 277 274 270 271 269 267 266 264 262 262 264 266 263 258 260 258 256 252 251 253 250
294 291 293 292 294 295 295 291 289 296 301 305 307 307 304 299 298 297 294 291 283 278 277 278 275 272 269 266 267 265 263 263 263 264 262 258 258 260 261 255 252 255 251
294 289 287 290 295 296 295 296 293 296 300 302 304 306 304 303 299 297 294 292 286 278 276 277 276 273 271 268 266 264 262 263 262 260 258 256 255 257 260 257 252 253 251
293 294 291 293 293 296 295 296 294 294 297 299 300 302 302 303 302 298 296 292 287 280 278 277 275 273 271 267 266 265 263 263 261 260 258 257 255 253 255 257 253 250 250
290 292 292 292 292 292 292 293 294 292 295 298 298 299 300 300 300 296 294 290 286 279 277 276 274 274 272 266 264 264 265 263 262 259 257 256 254 252 255 257 255 251 250
287 289 290 294 295 293 290 290 293 293 293 294 296 297 299 300 300 298 294 291 285 281 277 274 274 273 270 266 263 261 263 263 259 258 257 256 256 252 252 254 252 252 253
283 285 283 287 292 294 291 288 290 292 291 291 292 296 300 303 304 301 297 292 286 281 278 274 274 273 268 266 264 262 262 261 259 259 258 258 259 256 254 253 250 254 254
279 279 281 282 287 291 288 285 287 291 292 291 293 296 298 301 304 302 299 296 290 283 280 276 274 271 268 266 264 262 261 261 261 260 258 259 258 256 255 255 254 254 252
Height
5896 5895 5894 5894 5893 5893 5892 5891 5891 5890 5889 5888 5888 5887 5886 5885 5885 5884 5883 5883 5882 5882 5882 5881 5880 5880 5880 5880 5879 5879 5879 5879 5879 5879 5879 5878 5879 5879 5879 5879 5880 5880 5881
5896 5895 5895 5895 5894 5893 5893 5892 5891 5890 5889 5888 5887 5887 5886 5885 5884 5884 5883 5883 5882 5882 5881 5881 5880 5880 5879 5879 5879 5879 5879 5879 5878 5879 5878 5878 5878 5878 5878 5879 5880 5880 5881
5896 5896 5896 5895 5894 5894 5893 5892 5891 5890 5889 5888 5887 5886 5885 5885 5884 5883 5883 5882 5882 5881 5881 5880 5879 5879 5879 5879 5879 5878 5878 5878 5878 5878 5877 5877 5878 5878 5878 5878 5879 5880 5881
5896 5896 5896 5895 5895 5894 5893 5892 5891 5890 5889 5888 5887 5886 5885 5884 5883 5883 5882 5881 5881 5880 5880 5879 5879 5878 5878 5878 5878 5878 5878 5878 5877 5877 5876 5876 5877 5877 5878 5878 5879 5879 5880
5897 5896 5896 5895 5894 5894 5893 5892 5891 5890 5888 5887 5886 5885 5884 5883 5883 5882 5881 5881 5880 5880 5879 5879 5878 5878 5878 5877 5877 5877 5877 5877 5876 5876 5875 5876 5877 5877 5877 5878 5878 5879 5880
5896 5896 5895 5895 5894 5893 5893 5892 5890 5889 5888 5887 5886 5884 5883 5883 5882 5881 5881 5880 5879 5879 5878 5878 5877 5877 5877 5876 5876 5876 5876 5875 5875 5875 5875 5875 5876 5876 5877 5877 5878 5879 5880
5896 5896 5895 5894 5893 5893 5892 5891 5890 5889 5887 5886 5885 5884 5883 5882 5881 5880 5880 5879 5879 5878 5877 5877 5877 5876 5876 5875 5875 5875 5874 5874 5874 5874 5874 5875 5875 5875 5876 5877 5878 5878 5879
5896 5895 5894 5894 5893 5892 5891 5890 5889 5888 5886 5885 5884 5883 5882 5881 5880 5879 5879 5878 5878 5877 5876 5876 5876 5875 5875 5874 5874 5874 5873 5873 5873 5873 5873 5874 5874 5875 5875 5876 5876 5877 5878
5895 5895 5894 5893 5892 5891 5890 5889 5888 5887 5885 5884 5882 5881 5881 5880 5879 5878 5877 5877 5876 5876 5875 5875 5875 5874 5874 5874 5873 5872 5872 5872 5873 5873 5873 5873 5873 5874 5874 5875 5875 5876 5877
5894 5894 5893 5892 5891 5890 5889 5888 5887 5886 5884 5883 5881 5880 5879 5878 5878 5877 5876 5875 5875 5874 5874 5874 5873 5873 5873 5873 5872 5871 5871 5871 5872 5872 5872 5872 5872 5873 5873 5874 5874 5875 5875
5893 5892 5891 5891 5890 5889 5888 5887 5886 5884 5883 5881 5879 5878 5877 5877 5876 5875 5874 5874 5873 5873 5873 5872 5871 5871 5872 5871 5871 5871 5871 5871 5871 5871 5871 5871 5871 5872 5872 5872 5872 5873 5874
5892 5891 5890 5889 5888 5888 5887 5886 5884 5883 5881 5880 5878 5877 5876 5875 5874 5874 5873 5872 5872 5871 5871 5870 5869 5869 5870 5870 5870 5870 5870 5870 5870 5870 5870 5870 5870 5870 5870 5871 5871 5871 5872
5891 5890 5889 5888 5887 5886 5885 5884 5883 5881 5880 5878 5877 5876 5874 5873 5872 5872 5871 5870 5870 5869 5869 5868 5868 5867 5868 5868 5868 5868 5868 5868 5868 5868 5868 5868 5868 5868 5868 5868 5869 5870 5870
5888 5888 5887 5886 5885 5884 5883 5882 5881 5879 5878 5876 5875 5874 5873 5872 5871 5870 5869 5868 5868 5867 5867 5866 5866 5866 5866 5866 5866 5866 5866 5866 5867 5867 5867 5867 5867 5866 5866 5866 5867 5867 5868
5887 5886 5886 5885 5883 5882 5881 5880 5879 5877 5876 5875 5873 5872 5871 5870 5869 5868 5867 5866 5866 5865 5864 5864 5864 5864 5864 5864 5864 5864 5864 5864 5864 5864 5864 5864 5864 5864 5864 5864 5864 5865 5865
5885 5884 5883 5882 5882 5881 5880 5878 5877 5875 5874 5873 5871 5870 5869 5868 5867 5866 5865 5864 5863 5862 5862 5861 5861 5862 5862 5862 5862 5862 5862 5862 5862 5862 5862 5862 5862 5862 5861 5861 5862 5862 5863
5882 5882 5881 5880 5880 5879 5878 5876 5875 5873 5872 5871 5869 5868 5867 5865 5864 5863 5862 5861 5860 5860 5859 5858 5859 5859 5859 5859 5859 5859 5859 5859 5859 5859 5859 5859 5859 5859 5859 5858 5859 5859 5860
5879 5879 5878 5878 5877 5876 5875 5874 5872 5871 5870 5868 5867 5865 5864 5863 5862 5861 5860 5858 5858 5857 5856 5856 5856 5856 5855 5855 5856 5855 5855 5855 5856 5856 5856 5856 5856 5856 5855 5855 5855 5856 5856
5876 5876 5875 5874 5874 5874 5872 5871 5870 5869 5867 5866 5864 5863 5861 5860 5859 5858 5857 5855 5854 5854 5853 5853 5852 5852 5852 5852 5852 5852 5852 5852 5852 5852 5852 5852 5852 5852 5852 5852 5852 5852 5852
5873 5873 5872 5871 5871 5870 5869 5868 5867 5866 5865 5863 5861 5860 5858 5857 5856 5854 5853 5852 5851 5850 5850 5849 5849 5849 5848 5848 5849 5848 5848 5848 5848 5848 5848 5848 5849 5849 5849 5848 5849 5848 5847
5870 5870 5869 5869 5868 5867 5865 5864 5863 5862 5861 5860 5858 5857 5855 5854 5852 5851 5850 5848 5847 5846 5846 5845 5845 5845 5844 5844 5845 5845 5845 5844 5844 5844 5844 5845 5845 5845 5845 5845 5845 5845 5845
5867 5866 5865 5865 5865 5864 5863 5862 5861 5860 5858 5857 5856 5854 5852 5851 5849 5847 5846 5844 5843 5843 5842 5841 5841 5840 5840 5840 5840 5840 5840 5841 5840 5840 5840 5840 5841 5841 5841 5841 5841 5842 5842
5865 5864 5863 5862 5861 5860 5860 5858 5857 5856 5855 5854 5852 5851 5849 5847 5845 5843 5841 5840 5839 5838 5837 5837 5836 5836 5835 5835 5835 5836 5835 5836 5836 5836 5836 5836 5836 5836 5837 5837 5837 5838 5838
5861 5860 5859 5858 5857 5857 5856 5855 5853 5852 5851 5850 5849 5847 5845 5844 5842 5839 5837 5835 5834 5833 5832 5832 5831 5831 5830 5830 5830 5830 5831 5831 5831 5832 5832 5831 5832 5832 5832 5832 5833 5833 5834
5856 5856 5856 5855 5854 5853 5852 5851 5850 5849 5847 5846 5844 5843 5841 5840 5838 5835 5833 5831 5829 5828 5827 5826 5826 5825 5825 5824 5825 5825 5825 5825 5826 5826 5827 5827 5827 5827 5827 5828 5828 5829 5829
5852 5852 5851 5851 5850 5849 5848 5847 5846 5844 5843 5842 5840 5839 5837 5835 5833 5831 5828 5826 5824 5823 5822 5821 5820 5819 5819 5819 5819 5819 5819 5819 5820 5821 5821 5822 5822 5822 5822 5823 5823 5824 5824